Hourly Data Report for June 10, 2003

All times are specified in Local Standard Time (LST). Add 1 hour to adjust for Daylight Saving Time where and when it is observed.

TORONTO CITY
ONTARIO

43°40'00.000" N
79°24'00.000" W
112.50 m
6158355
71508
XTO

Download Data

Hourly Data (June 2003)
Hourly Data Report for June 10, 2003
TIME Temp Definition
°C
Dew Point Definition
°C
Rel Hum Definition
%
Wind Dir Definition
10's deg

Wind Spd Definition
km/h
Visibility Definition
km
Stn Press Definition
kPa
Hmdx Definition


Wind Chill Definition


Weather Definition


00:00 12.9 10.8 87 LegendMM LegendMM LegendMM 100.03     LegendNANA
01:00 12.1 10.7 91 LegendMM LegendMM LegendMM 100.05     LegendNANA
02:00 12.0 10.8 92 LegendMM LegendMM LegendMM 100.06     LegendNANA
03:00 11.9 10.5 91 LegendMM LegendMM LegendMM 100.15     LegendNANA
04:00 11.1 10.0 93 LegendMM LegendMM LegendMM 100.18     LegendNANA
05:00 11.5 10.6 94 LegendMM LegendMM LegendMM 100.17     LegendNANA
06:00 12.7 11.3 91 LegendMM LegendMM LegendMM 100.17     LegendNANA
07:00 15.0 11.8 81 LegendMM LegendMM LegendMM 100.28     LegendNANA
08:00 13.5 10.7 83 LegendMM LegendMM LegendMM 100.30     LegendNANA
09:00 16.0 12.4 79 LegendMM LegendMM LegendMM 100.23     LegendNANA
10:00 17.2 11.9 71 LegendMM LegendMM LegendMM 100.20     LegendNANA
11:00 16.8 12.2 74 LegendMM LegendMM LegendMM 100.17     LegendNANA
12:00 17.2 12.5 74 LegendMM LegendMM LegendMM 100.11     LegendNANA
13:00 17.4 12.3 72 LegendMM LegendMM LegendMM 100.06     LegendNANA
14:00 16.3 11.5 73 LegendMM LegendMM LegendMM 100.01     LegendNANA
15:00 15.9 10.0 68 LegendMM LegendMM LegendMM 99.96     LegendNANA
16:00 16.0 9.9 67 LegendMM LegendMM LegendMM 99.92     LegendNANA
17:00 15.5 10.3 71 LegendMM LegendMM LegendMM 99.83     LegendNANA
18:00 15.1 10.3 73 LegendMM LegendMM LegendMM 99.73     LegendNANA
19:00 15.3 11.3 77 LegendMM LegendMM LegendMM 99.68     LegendNANA
20:00 14.9 11.9 82 LegendMM LegendMM LegendMM 99.63     LegendNANA
21:00 13.3 12.0 92 LegendMM LegendMM LegendMM 99.61     LegendNANA
22:00 13.5 12.7 95 LegendMM LegendMM LegendMM 99.55     LegendNANA
23:00 14.1 13.0 93 LegendMM LegendMM LegendMM 99.53     LegendNANA

Notes on Data Quality.

Legend

  • E = Estimated
  • M = Missing
  • NA = Not Available
Date modified: